Location: Unspecified
(0.0000°N, 0.0000°E)
Time: 19:57:20
(UTC+00:00)

RS-8 - Pass Details

Date: 14 October 2022
Orbit: 1579 x 1660 km, 83.0° (Epoch: 05 December)

Event Time Altitude Azimuth Distance (km) Brightness Sun altitude
Rises 19:06:25 0° 172° (S) 4,768 10.6 -19.9°
Reaches altitude 10° 19:09:27 10° 167° (SSE) 3,782 10.0 -20.6°
Maximum altitude 19:18:18 54° 92° (E) 1,869 8.0 -22.8°
Drops below altitude 10° 19:27:10 10° 18° (NNE) 3,804 9.8 -25.0°
Sets 19:30:12 0° 14° (NNE) 4,797 10.4 -25.8°
